STARLINK-2113 (47392 NORAD) Tracking and Keplerian Element Data
This shows tracking and keplerian element data for the satellite.
Feedback or suggestion? Click here.
Element | Value |
Catalog | 47392 |
Name | STARLINK-2113 |
Epoch Orbit | 182 |
Epoch Day | 99.91667824 |
Epoch Year | 2021 |
RAAN | 181.7221 |
Inclination | 53.0542 |
Eccentricity | 0.0004171 |
Argument of Perigee | 4.7881 |
Mean Anonmoly | 53.4794 |
Mean Motion | 15.627673 |
Decay Rate | -0.00096279 |
L1 | 1 47392U 21005AV 21099.91667824 -.00096279 00000-0 -10570-2 0 9997 |
L2 | 2 47392 53.0542 181.7221 0004171 4.7881 53.4794 15.62767300 1829 |
Live tracking and technical data element details for STARLINK-2113 (NORAD 47392). STARLINK-2113 can be tracked NOW for your location showing map with azimuth and elevation plus other details from your city location.
Track the satellite on the map from your city or location and see movement details for azimuth, elevation, latitude, longitude, range, height, and movement on the map or in text.
IsCatalogInMostPopularTable: catalog: 47392, numindb: 19
Update: records affected: 1
GetName: 47392 STARLINK-2113
Hit Count: updated at: Sat, 10 Apr 2021 18:42:55 GMT